[Iaude] MPEC T67: 2016 TB11 [a=1.80,e=0.50,i=9.2,H=25.2]

mpec at si.edu mpec at si.edu
Fri Oct 7 12:33:49 EDT 2016


M.P.E.C. 2016-T67                                Issued 2016 Oct. 7, 16:30 UT
 
     The Minor Planet Electronic Circulars contain information on unusual
         minor planets and routine data on comets.  They are published
    on behalf of Division F of the International Astronomical Union by the
          Minor Planet Center, Smithsonian Astrophysical Observatory,
                          Cambridge, MA 02138, U.S.A.

             Prepared using the Tamkin Foundation Computer Network

                              MPC at CFA.HARVARD.EDU
            URL http://www.minorplanetcenter.net/    ISSN 1523-6714


                                   2016 TB11
 
Observations:
     K16T11B* C2016 10 05.40014 01 47 08.02 +28 05 24.3                qET067G96
     K16T11B  C2016 10 05.40441 01 47 09.76 +28 03 45.5          19.4 VqET067G96
     K16T11B  C2016 10 05.40869 01 47 11.53 +28 02 05.2          19.3 VqET067G96
     K16T11B  C2016 10 05.43783 01 47 23.49 +27 50 45.7          19.4 VqET067G96
     K16T11B  C2016 10 05.44101 01 47 24.83 +27 49 31.0          19.5 VqET067G96
     K16T11B  C2016 10 05.44414 01 47 26.11 +27 48 18.8          19.5 VqET067G96
     K16T11B  C2016 10 05.44728 01 47 27.41 +27 47 06.6          19.7 VqET067G96
     K16T11B KC2016 10 06.09402 01 52 10.56 +23 58 15.1                qET067J95
     K16T11B KC2016 10 06.09732 01 52 11.61 +23 57 11.1                qET067J95
     K16T11B KC2016 10 06.09955 01 52 12.37 +23 56 27.4          19.6 RqET067J95
     K16T11B  C2016 10 06.27846901 53 25.96 +23 00 35.2          19.4 VtET067H01
     K16T11B  C2016 10 06.28190601 53 26.96 +22 59 31.4          19.3 VtET067H01
     K16T11B  C2016 10 06.29524101 53 30.77 +22 55 25.2          20.0 VtET067H01
     K16T11B  C2016 10 06.30095501 53 32.38 +22 53 39.6          19.7 VtET067H01
     K16T11B  C2016 10 06.33107 01 53 41.61 +22 44 33.3          19.0 RoET067926
     K16T11B  C2016 10 06.33296 01 53 42.12 +22 43 58.9          19.1 RoET067926
     K16T11B  C2016 10 06.33483 01 53 42.65 +22 43 24.0          19.2 RoET067926
     K16T11B  C2016 10 06.40919 01 54 03.09 +22 20 40.7          19.6 VqET067G96
     K16T11B  C2016 10 06.40960 01 54 03.18 +22 20 33.1          19.6 VqET067G96
     K16T11B  C2016 10 06.41001 01 54 03.31 +22 20 25.6          19.7 VqET067G96
     K16T11B  C2016 10 06.41042 01 54 03.43 +22 20 18.1          19.7 VqET067G96
     K16T11B  C2016 10 06.67222 01 55 34.05 +21 03 56.1          20.2 RoET067300
     K16T11B  C2016 10 06.67574 01 55 34.90 +21 02 56.6          20.0 RoET067300
     K16T11B  C2016 10 06.67874 01 55 35.61 +21 02 05.3          20.2 RoET067300
     K16T11B KC2016 10 07.20804701 58 14.73 +18 41 27.9          19.3 VuET067H21
     K16T11B KC2016 10 07.21204001 58 15.58 +18 40 28.6          19.1 VuET067H21
     K16T11B KC2016 10 07.21680501 58 16.58 +18 39 18.3          19.0 VuET067H21
     K16T11B  C2016 10 07.31906 01 58 41.35 +18 14 35.5          20.1 VqET067I52
     K16T11B  C2016 10 07.31947 01 58 41.44 +18 14 30.0          20.0 VqET067I52
     K16T11B  C2016 10 07.31989 01 58 41.54 +18 14 23.1          20.4 VqET067I52
     K16T11B  C2016 10 07.32031 01 58 41.59 +18 14 16.9          19.8 VqET067I52
     K16T11B  C2016 10 07.32927 01 58 43.31 +18 12 07.3          19.5 VqET067G96
     K16T11B  C2016 10 07.32968 01 58 43.41 +18 12 01.7          19.6 VqET067G96
     K16T11B  C2016 10 07.33010 01 58 43.53 +18 11 55.3          19.4 VqET067G96
     K16T11B  C2016 10 07.33054 01 58 43.58 +18 11 49.1          19.6 VqET067G96
 
Observer details:
300 Bisei Spaceguard Center--BATTeRS.  Observers S. Okumura, A. Asami.  1.0-m
    f/3.0 reflector + CCD.
926 Tenagra II Observatory.  Observers M. Schwartz, P. R. Holvorcem.  Measurer
    M. Schwartz.  0.81-m f/7 Ritchey-Chretien + CCD.
G96 Mt. Lemmon Survey.  Observers R. G. Matheny, G. J. Leonard.  Measurers
    E. J. Christensen, D. C. Fuls, A. R. Gibbs, A. D. Grauer, J. A. Johnson,
    R. A. Kowalski, S. M. Larson, G. J. Leonard, R. G. Matheny, R. L. Seaman,
    F. C. Shelly.  1.5-m reflector + 10K CCD.
H01 Magdalena Ridge Observatory, Socorro.  Observers W. H. Ryan, E. V. Ryan.
    Measurer W. H. Ryan.  2.4-m f/8.9 reflector + CCD.
H21 Astronomical Research Observatory, Westfield.  Observer R. Holmes.
    Measurers S. Foglia, L. Buzzi, T. Linder, R. Holmes.  0.61-m f/4.5
    astrograph + CCD.
I52 Steward Observatory, Mt. Lemmon Station.  Observer J. A. Johnson.
    Measurers E. J. Christensen, D. C. Fuls, A. R. Gibbs, A. D. Grauer,
    J. A. Johnson, R. A. Kowalski, S. M. Larson, G. J. Leonard, R. G. Matheny,
    R. L. Seaman, F. C. Shelly.  1.0-m reflector + CCD.
J95 Great Shefford.  Observer P. Birtwhistle.  0.40-m f/6.0 Schmidt-Cassegrain
    + CCD.
 
Orbital elements:
2016 TB11                                                Earth MOID = 0.0254 AU
Epoch 2016 July 31.0 TT = JDT 2457600.5                 MPC
M 349.52933              (2000.0)            P               Q
n   0.40946082     Peri.  123.94046     +0.77226890     +0.63358933
a   1.7960888      Node   196.89894     -0.62282148     +0.74062779
e   0.4979806      Incl.    9.21155     -0.12527629     +0.22368514
P   2.41           H   25.2           G   0.15           U   7
Residuals in seconds of arc
161005 G96  0.1-  0.4-    161006 H01  0.1-  0.1-    161007 H21  0.6+  0.2-
161005 G96  0.2-  0.6+    161006 H01  0.2-  0.2-    161007 H21  0.6+  0.4-
161005 G96  0.0   0.3+    161006 926  0.3-  0.1+    161007 H21  0.4+  0.2-
161005 G96  0.1-  0.1-    161006 926  0.4-  0.5+    161007 I52  0.3-  0.1+
161005 G96  0.2+  0.8-    161006 926  0.2-  0.1-    161007 I52  0.1-  0.5+
161005 G96  0.0   0.2-    161006 G96  0.0   0.1+    161007 I52  0.1+  0.3-
161005 G96  0.0   0.5+    161006 G96  0.3-  0.0     161007 I52  0.3-  0.4-
161006 J95  0.2+  0.4-    161006 G96  0.1-  0.0     161007 G96  0.6-  0.0
161006 J95  0.2-  0.2+    161006 G96  0.0   0.1-    161007 G96  0.3-  0.3+
161006 J95  0.2+  0.2+    161006 300  0.6+  0.2+    161007 G96  0.2+  0.0
161006 H01  0.3-  0.1-    161006 300  0.3+  0.4+    161007 G96  0.3-  0.2+
161006 H01  0.1-  0.4-    161006 300  0.1-  0.1-

Ephemeris:
2016 TB11                a,e,i = 1.80, 0.50, 9                   q = 0.9017
Date    TT    R. A. (2000) Decl.     Delta      r     Elong.  Phase     V
2016 09 07    14 31 43.1 +20 19 51   0.1673  0.9155    52.5   119.2    25.9
...
2016 09 22    14 57 47.4 +34 46 49   0.06753 0.9659    54.4   122.3    24.3
...
2016 09 30    19 32 47.5 +75 43 14   0.02775 1.0051    96.8    81.6    20.3
...
2016 10 06    01 51 36.8 +24 31 01   0.04287 1.0388   155.2    23.8    19.6
2016 10 07    01 57 12.6 +19 35 50   0.04848 1.0447   158.6    20.4    19.7
2016 10 08    02 01 20.2 +15 42 25   0.05442 1.0507   161.0    18.1    19.9
...
2016 10 14    02 12 51.1 +03 26 14   0.09363 1.0882   165.3    13.4    21.0
...
2016 10 22    02 16 54.4 -02 16 56   0.1510  1.1415   164.7    13.3    22.2
...
2016 11 06    02 18 10.6 -04 58 58   0.2723  1.2479   158.0    17.3    23.8

A. U. Tomatic                (C) Copyright 2016 MPC           M.P.E.C. 2016-T67




More information about the Iaude mailing list